星链-5000 (STARLINK-5000 )

导读

STARLINK-5000是美国太空探索技术公司(SpaceX)星链互联网卫星星座的一员,于2022年9月24日发射升空。星链项目旨在构建全球卫星互联网星座,为全球偏远地区、海洋航空等场景提供高速互联网接入服务,STARLINK-5000的入轨进一步扩充了星链星座的规模,增强了星座服务覆盖能力。

基本信息
目录编号:
53935
目录名称:
STARLINK-5000
国际标识:
2022-119BB
轨道中心:
EARTH
卫星名称:
星链-5000
卫星全名:
星链-5000 (STARLINK-5000 )
卫星状态:
在轨 (已飞行1362 天)
发射日期:
2022-09-24 UTC
国别 :
美国 (US)
星等 :
--
轨道信息
数据来源 国际轨道数据
星历时间: 2026-06-17T12:00:02+0800
8小时前
查看轨道信息
半长轴: 6677.037km
偏心率: 0.0001507
轨道倾角: 53.213°
近地点辐角 65.914°
升交点赤经 174.746°
平近点角 352.819°
近地点: 297.893km
远地点: 299.907km
周期: 90.497分钟
每日圈数: 15.912086
详细信息
固有亮度:
5
最大亮度:
2.5
卫星平台:
Starlink v1.5
覆盖范围:
全球
运营商:
太空探索技术公司
运营商所在国:
美国
制造商(研发单位):
太空探索技术公司
制造商所在国:
美国
使用方式:
暂无
卫星简介
星链(Starlink)计划是由太空探索技术公司(SpaceX)提出的一个巨型低轨卫星互联网星座项目,计划在2019年至2024年间在太空搭建由约1.2万颗卫星组成的“星链”网络,其中1584颗将部署在地球上空550千米处的近地轨道,并从2020年开始工作。该卫星仍在工作。
2D轨道图
3D轨道图
轨道高度分析图
轨道倾角分析图
轨道综合分析图
查看轨道综合分析图